EW2781 Weather Reports


time (UTC)temp
C
wind
direction
speed
KPH
gust
KPH
rain 1hr
cm
rain 24hr
cm
rain mn
cm
humidity
%
barometer
mb
20260503200058 18 87 4.8 11.3 0.00 0.13 0.03 58 1017.5
20260503194503 18 113 3.2 12.9 0.00 0.13 0.03 58 1017.8
20260503193004 18 108 4.8 11.3 0.00 0.13 0.03 56 1018.0
20260503191509 18 142 3.2 9.7 0.00 0.13 0.03 54 1018.2
20260503190020 19 58 3.2 11.3 0.00 0.15 0.03 53 1018.5
20260503184528 20 309 3.2 14.5 0.00 0.15 0.03 48 1018.4
20260503183043 20 288 1.6 8.0 0.00 0.15 0.03 48 1018.5
20260503181616 20 131 3.2 11.3 0.00 0.15 0.03 51 1018.5
20260503180104 19 295 1.6 16.1 0.00 0.28 0.03 49 1018.8
20260503174557 19 296 6.4 16.1 0.00 0.28 0.03 48 1019.0
20260503173102 19 21 4.8 14.5 0.00 0.28 0.03 51 1019.1
20260503171558 18 244 0.0 8.0 0.00 0.28 0.03 47 1019.2
20260503100128 8 302 1.6 4.8 0.00 1.22 0.00 98 1017.1
20260503081541 9 286 0.0 4.8 0.00 1.30 0.00 97 1016.1
20260503071502 9 291 0.0 1.6 0.00 1.32 0.00 97 1015.7
20260503054532 10 294 0.0 4.8 0.00 1.32 0.00 97 1015.0
20260503053042 10 280 0.0 4.8 0.00 1.32 0.00 97 1015.2
20260503051549 10 291 3.2 6.4 0.00 1.32 0.00 97 1015.1
20260503050051 10 300 1.6 6.4 0.00 1.32 0.00 97 1015.1
20260503044622 11 280 0.0 4.8 0.00 1.32 0.00 96 1014.9
20260503043005 11 293 1.6 6.4 0.00 1.32 0.00 96 1014.6
20260503041510 11 293 0.0 9.7 0.00 1.32 0.00 96 1014.4
20260503040016 11 270 1.6 4.8 0.00 1.32 1.32 96 1014.4
20260503034526 11 259 0.0 3.2 0.00 1.32 1.32 95 1014.2
20260503033039 11 291 0.0 4.8 0.00 1.32 1.32 95 1014.1
20260503031541 12 283 0.0 4.8 0.00 1.32 1.32 95 1013.9
20260503030045 12 309 0.0 9.7 0.00 1.37 1.32 95 1013.8
20260503024555 12 305 0.0 3.2 0.00 1.37 1.32 95 1013.5
20260503023058 12 295 0.0 4.8 0.00 1.37 1.32 95 1013.3
20260503021552 12 319 0.0 6.4 0.00 1.37 1.32 95 1013.1
20260503020104 12 262 0.0 6.4 0.00 1.37 1.32 95 1013.0
20260503014620 12 300 1.6 6.4 0.00 1.37 1.32 95 1013.1
20260503013010 12 287 0.0 1.6 0.00 1.37 1.32 95 1012.6
20260503011504 12 11 1.6 6.4 0.00 1.37 1.32 95 1012.6
20260503010019 12 289 0.0 16.1 0.00 1.37 1.32 95 1012.5
20260503004522 12 289 3.2 11.3 0.00 1.37 1.32 95 1012.3
20260503003032 13 292 1.6 9.7 0.00 1.37 1.32 95 1012.2
20260503001540 13 283 1.6 8.0 0.00 1.37 1.32 95 1011.7
20260503000046 13 330 0.0 6.4 0.00 1.37 1.32 95 1011.1
20260502234554 13 13 0.0 4.8 0.00 1.37 1.32 95 1011.1
20260502233048 13 261 1.6 8.0 0.00 1.37 1.32 95 1011.1
20260502231552 13 73 0.0 6.4 0.00 1.37 1.32 95 1011.1
20260502230055 13 283 0.0 4.8 0.00 1.37 1.32 95 1010.9
20260502224509 13 264 1.6 6.4 0.00 1.37 1.32 96 1010.8
20260502223035 13 307 1.6 6.4 0.00 1.37 1.32 96 1011.0
20260502221525 13 290 1.6 4.8 0.03 1.37 1.32 96 1010.9
20260502220036 13 311 0.0 4.8 0.03 1.37 1.32 96 1010.7
20260502214540 13 282 0.0 9.7 0.05 1.37 1.32 96 1010.6
20260502213039 13 295 1.6 6.4 0.08 1.37 1.32 96 1010.4
20260502211545 13 270 1.6 6.4 0.05 1.35 1.30 96 1010.1
20260502210044 13 14 0.0 3.2 0.05 1.35 1.30 96 1010.3
20260502204551 13 324 0.0 4.8 0.05 1.32 1.27 96 1010.1
20260502203113 13 293 1.6 9.7 0.03 1.30 1.24 96 1010.2
20260502201600 13 297 4.8 14.5 0.03 1.30 1.24 96 1010.1